| time (UTC) | temp C | wind direction | speed KPH | gust KPH | rain 1hr cm | rain 24hr cm | rain mn cm | humidity % | barometer mb |
| 20260510094157 | 10 | 255 | 0.0 | 6.4 | 0.00 | 1.19 | 0.00 | 92 | 1013.8 |
| 20260510093157 | 10 | 250 | 0.0 | 0.0 | 0.00 | 1.19 | 0.00 | 92 | 1013.7 |
| 20260510092158 | 10 | 256 | 0.0 | 0.0 | 0.00 | 1.19 | 0.00 | 92 | 1013.7 |
| 20260510091157 | 10 | 256 | 0.0 | 0.0 | 0.00 | 1.19 | 0.00 | 92 | 1013.6 |
| 20260510090157 | 10 | 253 | 0.0 | 0.0 | 0.00 | 1.19 | 0.00 | 92 | 1013.9 |
| 20260510084157 | 10 | 253 | 0.0 | 0.0 | 0.00 | 1.19 | 0.00 | 92 | 1014.1 |
| 20260510083157 | 10 | 256 | 0.0 | 0.0 | 0.00 | 1.19 | 0.00 | 92 | 1014.0 |
| 20260510082157 | 10 | 256 | 0.0 | 0.0 | 0.00 | 1.19 | 0.00 | 93 | 1014.1 |
| 20260510081158 | 10 | 255 | 0.0 | 0.0 | 0.00 | 1.19 | 0.00 | 93 | 1013.9 |
| 20260510080158 | 10 | 256 | 0.0 | 4.8 | 0.00 | 1.19 | 0.00 | 93 | 1014.0 |
| 20260510074157 | 10 | 256 | 0.0 | 0.0 | 0.00 | 1.19 | 0.00 | 93 | 1013.7 |
| 20260510073157 | 10 | 257 | 0.0 | 0.0 | 0.00 | 1.19 | 0.00 | 93 | 1013.7 |
| 20260510071157 | 10 | 255 | 0.0 | 0.0 | 0.00 | 1.19 | 0.00 | 92 | 1013.6 |
| 20260510070158 | 10 | 256 | 0.0 | 0.0 | 0.00 | 1.19 | 0.00 | 92 | 1013.6 |
| 20260510065157 | 10 | 256 | 0.0 | 0.0 | 0.00 | 1.19 | 0.00 | 92 | 1013.7 |
| 20260510064158 | 10 | 255 | 0.0 | 0.0 | 0.00 | 1.19 | 0.00 | 92 | 1013.7 |
| 20260510063157 | 10 | 254 | 0.0 | 0.0 | 0.00 | 1.19 | 0.00 | 92 | 1013.7 |
| 20260510061157 | 10 | 254 | 0.0 | 6.4 | 0.00 | 1.19 | 0.00 | 92 | 1013.8 |
| 20260510060157 | 10 | 276 | 0.0 | 0.0 | 0.00 | 1.19 | 0.00 | 92 | 1013.7 |
| 20260510055157 | 10 | 283 | 0.0 | 0.0 | 0.00 | 1.19 | 0.00 | 93 | 1013.7 |
| 20260510054157 | 10 | 295 | 0.0 | 0.0 | 0.00 | 1.19 | 0.00 | 93 | 1013.7 |
| 20260510053157 | 10 | 299 | 0.0 | 3.2 | 0.00 | 1.19 | 0.00 | 93 | 1013.7 |
| 20260510052158 | 10 | 305 | 0.0 | 0.0 | 0.00 | 1.19 | 0.00 | 93 | 1013.6 |
| 20260510051158 | 10 | 304 | 0.0 | 0.0 | 0.00 | 1.19 | 0.00 | 93 | 1013.8 |
| 20260510044157 | 10 | 307 | 0.0 | 0.0 | 0.00 | 1.19 | 0.00 | 93 | 1014.0 |
| 20260510043157 | 10 | 359 | 0.0 | 0.0 | 0.00 | 1.19 | 0.00 | 93 | 1013.9 |
| 20260510042157 | 10 | 308 | 0.0 | 0.0 | 0.00 | 1.19 | 0.00 | 93 | 1014.0 |
| 20260510041157 | 10 | 309 | 0.0 | 0.0 | 0.00 | 1.19 | 0.00 | 92 | 1014.0 |
| 20260510040157 | 10 | 309 | 0.0 | 0.0 | 0.00 | 1.19 | 0.00 | 92 | 1014.1 |
| 20260510035157 | 10 | 308 | 0.0 | 0.0 | 0.00 | 1.19 | 1.19 | 92 | 1014.0 |
| 20260510034157 | 10 | 309 | 0.0 | 0.0 | 0.00 | 1.19 | 1.19 | 92 | 1013.9 |
| 20260510033157 | 10 | 308 | 0.0 | 0.0 | 0.00 | 1.19 | 1.19 | 92 | 1013.8 |
| 20260510031157 | 10 | 307 | 0.0 | 0.0 | 0.00 | 1.19 | 1.19 | 92 | 1013.8 |
| 20260510030157 | 10 | 308 | 0.0 | 0.0 | 0.00 | 1.19 | 1.19 | 92 | 1014.0 |
| 20260510025157 | 10 | 308 | 0.0 | 0.0 | 0.00 | 1.19 | 1.19 | 92 | 1013.9 |
| 20260510024157 | 10 | 310 | 0.0 | 0.0 | 0.00 | 1.19 | 1.19 | 92 | 1014.0 |
| 20260510023157 | 10 | 310 | 0.0 | 0.0 | 0.00 | 1.19 | 1.19 | 92 | 1014.1 |
| 20260510022157 | 10 | 307 | 0.0 | 0.0 | 0.00 | 1.19 | 1.19 | 92 | 1014.2 |
| 20260510021157 | 10 | 307 | 0.0 | 0.0 | 0.00 | 1.19 | 1.19 | 92 | 1014.5 |
| 20260510020157 | 10 | 310 | 0.0 | 0.0 | 0.00 | 1.19 | 1.19 | 92 | 1014.4 |
| 20260510015157 | 10 | 310 | 0.0 | 0.0 | 0.00 | 1.19 | 1.19 | 92 | 1014.3 |
| 20260510014157 | 10 | 311 | 0.0 | 0.0 | 0.00 | 1.19 | 1.19 | 92 | 1014.3 |
| 20260510012157 | 10 | 310 | 0.0 | 0.0 | 0.00 | 1.19 | 1.19 | 92 | 1014.2 |
| 20260510011157 | 10 | 310 | 0.0 | 0.0 | 0.00 | 1.19 | 1.19 | 92 | 1014.0 |
| 20260510010157 | 10 | 309 | 0.0 | 0.0 | 0.03 | 1.19 | 1.19 | 92 | 1014.0 |
| 20260510005157 | 10 | 310 | 0.0 | 0.0 | 0.03 | 1.19 | 1.19 | 92 | 1013.8 |
| 20260510002157 | 10 | 306 | 0.0 | 0.0 | 0.03 | 1.19 | 1.19 | 92 | 1013.8 |
| 20260510001157 | 10 | 309 | 0.0 | 0.0 | 0.03 | 1.19 | 1.19 | 92 | 1013.8 |
| 20260509235157 | 10 | 308 | 0.0 | 0.0 | 0.00 | 1.17 | 1.17 | 92 | 1013.9 |
| 20260509234157 | 10 | 308 | 0.0 | 0.0 | 0.00 | 1.17 | 1.17 | 92 | 1013.8 |
| 20260509233157 | 10 | 310 | 0.0 | 0.0 | 0.00 | 1.17 | 1.17 | 92 | 1013.8 |
| 20260509232157 | 10 | 308 | 0.0 | 0.0 | 0.00 | 1.17 | 1.17 | 91 | 1013.7 |
| 20260509225157 | 10 | 310 | 0.0 | 0.0 | 0.00 | 1.17 | 1.17 | 92 | 1013.4 |
| 20260509224157 | 10 | 359 | 0.0 | 0.0 | 0.03 | 1.17 | 1.17 | 92 | 1013.4 |
| 20260509223157 | 10 | 311 | 0.0 | 0.0 | 0.08 | 1.17 | 1.17 | 92 | 1013.5 |
| 20260509222157 | 10 | 305 | 0.0 | 0.0 | 0.10 | 1.17 | 1.17 | 92 | 1013.5 |
| 20260509221157 | 10 | 359 | 0.0 | 0.0 | 0.15 | 1.17 | 1.17 | 92 | 1013.4 |
| 20260509220157 | 10 | 310 | 0.0 | 0.0 | 0.15 | 1.17 | 1.17 | 92 | 1013.4 |
| 20260509215157 | 10 | 310 | 0.0 | 0.0 | 0.20 | 1.17 | 1.17 | 91 | 1013.5 |
| 20260509214157 | 10 | 308 | 0.0 | 0.0 | 0.20 | 1.14 | 1.14 | 91 | 1013.5 |
| 20260509213157 | 10 | 312 | 0.0 | 0.0 | 0.20 | 1.09 | 1.09 | 91 | 1013.7 |
| 20260509212158 | 10 | 309 | 0.0 | 0.0 | 0.23 | 1.07 | 1.07 | 91 | 1013.8 |
| 20260509211157 | 10 | 359 | 0.0 | 0.0 | 0.20 | 1.02 | 1.02 | 91 | 1013.9 |
| 20260509210157 | 10 | 307 | 0.0 | 0.0 | 0.23 | 1.02 | 1.02 | 91 | 1013.9 |
| 20260509204157 | 10 | 313 | 0.0 | 0.0 | 0.20 | 0.94 | 0.94 | 90 | 1014.3 |
| 20260509203157 | 10 | 310 | 0.0 | 0.0 | 0.18 | 0.89 | 0.89 | 90 | 1014.4 |
| 20260509202157 | 10 | 309 | 0.0 | 0.0 | 0.15 | 0.84 | 0.84 | 90 | 1014.4 |
| 20260509201157 | 10 | 308 | 0.0 | 0.0 | 0.13 | 0.81 | 0.81 | 90 | 1014.4 |
| 20260509200157 | 10 | 311 | 0.0 | 0.0 | 0.13 | 0.79 | 0.79 | 90 | 1014.3 |
| 20260509195157 | 10 | 313 | 0.0 | 0.0 | 0.10 | 0.76 | 0.76 | 90 | 1014.4 |
| 20260509194157 | 10 | 308 | 0.0 | 0.0 | 0.08 | 0.74 | 0.74 | 90 | 1014.3 |
| 20260509192157 | 10 | 308 | 0.0 | 0.0 | 0.05 | 0.69 | 0.69 | 91 | 1014.3 |
| 20260509191157 | 10 | 308 | 0.0 | 0.0 | 0.05 | 0.69 | 0.69 | 91 | 1014.2 |
| 20260509190157 | 10 | 312 | 0.0 | 0.0 | 0.03 | 0.66 | 0.66 | 91 | 1014.2 |
| 20260509185157 | 10 | 308 | 0.0 | 0.0 | 0.05 | 0.66 | 0.66 | 91 | 1014.1 |
| 20260509184157 | 10 | 310 | 0.0 | 0.0 | 0.08 | 0.66 | 0.66 | 91 | 1014.5 |
| 20260509183157 | 10 | 310 | 0.0 | 0.0 | 0.08 | 0.64 | 0.64 | 92 | 1014.7 |
| 20260509182157 | 9 | 308 | 0.0 | 0.0 | 0.10 | 0.64 | 0.64 | 92 | 1014.6 |
| 20260509180157 | 8 | 359 | 0.0 | 0.0 | 0.13 | 0.64 | 0.64 | 92 | 1014.8 |
| 20260509174157 | 8 | 311 | 0.0 | 0.0 | 0.13 | 0.58 | 0.58 | 91 | 1015.2 |
| 20260509173157 | 8 | 310 | 0.0 | 0.0 | 0.10 | 0.56 | 0.56 | 91 | 1015.4 |
| 20260509172157 | 8 | 310 | 0.0 | 0.0 | 0.10 | 0.53 | 0.53 | 91 | 1015.6 |